This demonstration page uses our WeatherBlox Daily Observations layout. Learn more.

Hourly Observations for August 23, 2016

Temp ( °F °C ) Dew Point ( °F °C ) Humidity (%) Winds ( mph kmh ) Pressure ( in mb ) Visibility ( mi km ) Precip ( " mm )
12:15 am 00:15 Clear 71 21.7 55 13 58 58 SSE 15 24 29.85 1011 10 16.09344 0 0
12:35 am 00:35 Clear 71 21.6 55 13 58 58 SSE 15 24 29.85 1011 10 16.09344 0 0
12:55 am 00:55 Clear 71 21.5 55 13 59 59 SSE 15 24 29.83 1010 10 16.09344 0 0
1:15 am 01:15 Clear 69 20.8 56 13.2 62 62 SSE 13 20 29.83 1010 10 16.09344 0 0
1:35 am 01:35 Clear 69 20.7 56 13.3 63 63 SSE 12 19 29.83 1010 10 16.09344 0 0
1:55 am 01:55 Clear 68 20.2 56 13.5 66 66 SSE 12 19 29.83 1010 10 16.09344 0 0
2:15 am 02:15 Clear 69 20.3 56 13.5 65 65 S 8 13 29.83 1010 10 16.09344 0 0
2:35 am 02:35 Clear with Thunderstorms 67 19.7 57 13.9 69 69 SSW 6 9 29.85 1011 10 16.09344 0 0
2:55 am 02:55 Partly Cloudy with Light Drizzle 67 19.6 58 14.2 71 71 SSW 10 17 29.85 1011 10 16.09344 0 0
3:15 am 03:15 Mostly Cloudy with Light Thunderstorms 66 18.7 61 15.9 84 84 SW 12 19 29.88 1012 10 16.09344 0 0
3:35 am 03:35 Cloudy with Heavy Thunderstorms 65 18.1 61 16.3 89 89 SSW 9 15 29.85 1011 3 4.828032 0.2 5.08
3:55 am 03:55 Cloudy with Heavy Thunderstorms 65 18.1 62 16.7 92 92 Calm 29.85 1011 1.75 2.816352 0.55 13.97
4:15 am 04:15 Cloudy 65 18.6 63 17.2 92 92 Calm 29.83 1010 7 11.265408 0.13 3.302
4:35 am 04:35 Cloudy with Light Thunderstorms 65 18.5 63 17.2 92 92 NW 3 6 29.85 1011 10 16.09344 0.16 4.064
4:55 am 04:55 Cloudy with Nearby Thunderstorms 65 18.3 64 17.5 95 95 NW 7 11 29.85 1011 10 16.09344 0.16 4.064
5:15 am 05:15 Mostly Cloudy with Nearby Thunderstorms 65 18.1 63 17.2 95 95 E 6 9 29.83 1010 10 16.09344 0 0
5:35 am 05:35 Partly Cloudy with Nearby Thunderstorms 64 18 63 17.1 95 95 E 8 13 29.83 1010 10 16.09344 0 0
5:55 am 05:55 Clear 65 18.1 63 17 93 93 E 7 11 29.83 1010 10 16.09344 0 0
6:15 am 06:15 Clear 65 18.1 63 17 93 93 ESE 8 13 29.83 1010 10 16.09344 0 0
6:35 am 06:35 Clear 64 18 62 16.4 90 90 SE 9 15 29.83 1010 10 16.09344 0 0
6:55 am 06:55 Clear 64 17.6 61 16.2 92 92 SE 9 15 29.8 1009 10 16.09344 0 0
7:15 am 07:15 Sunny 64 17.6 61 16.2 92 92 SE 10 17 29.8 1009 10 16.09344 0 0
7:35 am 07:35 Sunny 64 18 62 16.5 91 91 ESE 10 17 29.77 1008 10 16.09344 0 0
7:55 am 07:55 Sunny 65 18.3 63 17 92 92 SE 9 15 29.77 1008 10 16.09344 0 0
8:15 am 08:15 Sunny 66 18.9 64 17.6 92 92 SE 9 15 29.77 1008 7 11.265408 0 0
8:35 am 08:35 Sunny 68 20 65 18.6 92 92 SSE 12 19 29.77 1008 7 11.265408 0 0
8:55 am 08:55 Partly Cloudy 70 21.1 67 19.2 89 89 SSE 13 20 29.77 1008 10 16.09344 0 0
9:15 am 09:15 Partly Cloudy 71 21.7 67 19.5 87 87 SSE 16 26 29.71 1006 10 16.09344 0 0
9:35 am 09:35 Mostly Cloudy 73 22.6 67 19.6 83 83 S 15 24 29.71 1006 10 16.09344 0 0
9:55 am 09:55 Partly Cloudy 74 23.1 67 19.5 80 80 S 15 24 29.71 1006 10 16.09344 0 0
10:15 am 10:15 Partly Cloudy 75 24 67 19.4 76 76 S 15 24 29.71 1006 10 16.09344 0 0
10:35 am 10:35 Partly Cloudy 77 25.1 67 19.2 70 70 S 17 28 29.68 1005 10 16.09344 0 0
10:55 am 10:55 Partly Cloudy 78 25.6 66 18.7 66 66 S 14 22 29.68 1005 10 16.09344 0 0
11:15 am 11:15 Sunny 79 26.3 64 18 60 60 S 16 26 29.68 1005 10 16.09344 0 0
11:35 am 11:35 Sunny 80 26.8 64 17.6 57 57 S 15 24 29.68 1005 10 16.09344 0 0
11:55 am 11:55 Sunny 81 27.3 65 18.1 57 57 S 13 20 29.68 1005 10 16.09344 0 0
12:15 pm 12:15 Sunny 82 27.7 64 17.8 55 55 S 14 22 29.68 1005 10 16.09344 0 0
12:35 pm 12:35 Sunny 83 28.6 64 18 53 53 S 13 20 29.68 1005 10 16.09344 0 0
12:55 pm 12:55 Sunny 84 28.7 64 17.5 51 51 S 15 24 29.65 1004 10 16.09344 0 0
1:15 pm 13:15 Sunny 85 29.5 62 16.9 47 47 SSW 18 30 29.65 1004 10 16.09344 0 0
1:35 pm 13:35 Sunny 86 29.8 63 17 46 46 SSW 16 26 29.65 1004 10 16.09344 0 0
1:55 pm 13:55 Sunny 87 30.5 63 17.2 45 45 SSW 13 20 29.65 1004 10 16.09344 0 0
2:15 pm 14:15 Sunny 87 30.8 61 15.9 41 41 S 14 22 29.65 1004 10 16.09344 0 0
2:35 pm 14:35 Sunny 88 31.3 61 16 40 40 SSW 15 24 29.62 1003 10 16.09344 0 0
2:55 pm 14:55 Sunny 90 32 62 16.4 39 39 SSW 12 19 29.65 1004 10 16.09344 0 0
3:15 pm 15:15 Sunny 90 32.2 61 16.1 38 38 SW 10 17 29.65 1004 10 16.09344 0 0
3:35 pm 15:35 Sunny 90 32.4 60 15.5 36 36 S 9 15 29.59 1002 10 16.09344 0 0
3:55 pm 15:55 Sunny 91 32.7 59 14.8 34 34 SSW 12 19 29.59 1002 10 16.09344 0 0
4:15 pm 16:15 Sunny 92 33.1 60 15.6 35 35 SSW 10 17 29.59 1002 10 16.09344 0 0
4:35 pm 16:35 Sunny 92 33.4 59 15.1 33 33 SSW 8 13 29.59 1002 10 16.09344 0 0
4:55 pm 16:55 Sunny 89 31.7 64 17.9 44 44 WNW 9 15 29.62 1003 10 16.09344 0 0
5:15 pm 17:15 Sunny 89 31.5 64 18 45 45 NW 7 11 29.65 1004 10 16.09344 0 0
5:35 pm 17:35 Sunny 89 31.4 67 19.4 49 49 NNW 3 6 29.62 1003 10 16.09344 0 0
5:55 pm 17:55 Sunny 88 31.3 66 18.8 47 47 NNW 3 6 29.62 1003 10 16.09344 0 0
6:15 pm 18:15 Sunny 88 31 67 19.7 51 51 NW 3 6 29.62 1003 10 16.09344 0 0
6:35 pm 18:35 Sunny 87 30.7 67 19.4 51 51 NNW 3 6 29.62 1003 10 16.09344 0 0
6:55 pm 18:55 Sunny 86 30.2 69 20.4 56 56 NNW 3 6 29.65 1004 10 16.09344 0 0
7:15 pm 19:15 Sunny 84 28.9 70 21.3 64 64 N 3 6 29.65 1004 10 16.09344 0 0
7:35 pm 19:35 Sunny 82 27.8 71 21.8 70 70 N 5 7 29.68 1005 10 16.09344 0 0
7:55 pm 19:55 Sunny 80 26.9 72 22.1 75 75 N 3 6 29.68 1005 10 16.09344 0 0
8:15 pm 20:15 Sunny 79 26.2 70 21.2 74 74 NNW 6 9 29.68 1005 10 16.09344 0 0
8:35 pm 20:35 Clear 78 25.7 69 20.7 74 74 NNW 6 9 29.68 1005 10 16.09344 0 0
8:55 pm 20:55 Clear 77 25.1 69 20.7 77 77 NW 3 6 29.74 1007 10 16.09344 0 0
9:15 pm 21:15 Clear 76 24.2 70 21.2 83 83 NW 3 6 29.74 1007 10 16.09344 0 0
9:35 pm 21:35 Clear 75 23.9 70 20.9 83 83 NW 7 11 29.77 1008 10 16.09344 0 0
9:55 pm 21:55 Clear 74 23.6 66 19.1 76 76 NW 8 13 29.77 1008 10 16.09344 0 0
10:15 pm 22:15 Clear 74 23.3 60 15.6 62 62 NNW 10 17 29.8 1009 10 16.09344 0 0
10:35 pm 22:35 Clear 73 23 57 14.1 57 57 N 9 15 29.8 1009 10 16.09344 0 0
10:55 pm 22:55 Clear 72 22.3 56 13.6 58 58 NNW 9 15 29.8 1009 10 16.09344 0 0
11:15 pm 23:15 Clear 71 21.4 57 14 63 63 NNW 7 11 29.83 1010 10 16.09344 0 0
11:35 pm 23:35 Clear 69 20.8 57 14 65 65 NNW 8 13 29.85 1011 10 16.09344 0 0
11:55 pm 23:55 Clear 69 20.3 57 13.9 67 67 NNW 8 13 29.85 1011 10 16.09344 0 0

Powered by AerisWeather